Location: Curupao
(10.4996°N, 66.6442°W)
Time: 01:41:57
(UTC+00:00)

Cosmos 2278 Rocket - Pass Details

Date: 23 May 2024
Orbit: 840 x 846 km, 71.0° (Epoch: 12 June)

Event Time Altitude Azimuth Distance (km) Brightness Sun altitude
Rises 01:03:39 0° 330° (NNW) 3,389 6.2 -31.9°
Reaches altitude 10° 01:06:14 10° 323° (NW) 2,454 5.4 -32.4°
Enters shadow 01:11:23 38° 257° (WSW) 1,253 3.3 -33.5°
